Lapse_Rate
7.0 6.8 6.8 6.8 7.0 7.1 6.9 6.8 6.7 6.9 7.0 7.0 7.1 7.2 7.2 7.1 7.2 7.2 7.2 7.3 7.3 7.4 7.4 7.4 7.4 7.2 6.9 6.7 6.4 6.4 6.4 6.4 6.5 6.4 6.3 6.3 6.4 6.4 6.3 6.2 6.2 6.3 6.5 6.6 6.6 6.7 6.6 6.6 6.6
7.0 6.9 6.9 6.9 7.1 7.1 7.0 6.9 6.9 6.9 7.1 7.3 7.2 7.3 7.3 7.3 7.4 7.4 7.2 7.3 7.3 7.4 7.4 7.4 7.4 7.4 7.2 6.9 6.7 6.5 6.4 6.5 6.5 6.4 6.4 6.4 6.4 6.3 6.4 6.5 6.6 6.7 6.6 6.7 6.7 6.7 6.6 6.7 6.6
7.0 6.9 7.0 6.9 7.0 7.1 7.1 7.0 7.0 7.2 7.3 7.3 7.3 7.3 7.3 7.3 7.3 7.2 7.2 7.2 7.2 7.2 7.3 7.3 7.4 7.3 7.2 7.2 7.1 7.0 6.9 6.8 6.7 6.7 6.7 6.6 6.6 6.8 6.8 6.8 6.8 6.8 6.8 6.8 6.9 6.8 6.8 7.0 7.0
7.1 7.0 7.1 7.0 6.9 7.0 7.1 7.2 7.3 7.3 7.3 7.3 7.4 7.3 7.3 7.3 7.3 7.2 7.3 7.2 7.1 7.2 7.2 7.2 7.2 7.2 7.2 7.1 7.0 7.0 7.0 7.0 7.0 7.0 6.9 6.9 6.9 6.9 6.9 7.0 6.9 6.9 6.8 6.8 6.8 6.8 7.0 7.0 7.1
7.2 7.2 7.2 7.1 7.0 7.1 7.2 7.3 7.3 7.3 7.5 7.5 7.4 7.4 7.3 7.2 7.1 7.2 7.2 7.2 7.1 7.2 7.3 7.2 7.2 7.2 7.2 7.2 7.3 7.2 7.2 7.1 7.0 7.0 7.0 7.0 7.0 7.0 7.0 7.1 7.0 7.1 7.0 6.9 6.8 6.8 6.8 6.9 7.0
7.2 7.2 7.2 7.2 7.1 7.2 7.2 7.2 7.2 7.2 7.3 7.3 7.4 7.4 7.3 7.3 7.3 7.3 7.3 7.4 7.2 7.2 7.1 7.2 7.3 7.2 7.2 7.1 7.1 7.2 7.3 7.3 7.2 7.1 7.0 7.0 7.0 6.9 7.1 7.2 7.2 7.1 7.1 7.1 7.0 6.9 6.8 6.9 6.9
7.1 7.2 7.3 7.1 7.0 7.1 7.1 7.1 7.2 7.3 7.3 7.3 7.2 7.3 7.3 7.3 7.5 7.5 7.4 7.4 7.4 7.2 7.1 7.1 7.2 7.2 7.3 7.3 7.1 7.0 7.1 7.1 7.1 7.2 7.2 7.1 7.2 6.8 6.8 6.9 6.8 6.9 7.0 6.9 6.9 6.9 6.9 6.8 6.8
7.1 7.2 7.2 7.2 7.0 7.0 7.1 7.1 7.2 7.3 7.5 7.2 7.0 7.0 7.0 7.0 7.2 7.4 7.4 7.5 7.5 7.3 7.2 7.1 7.1 7.2 7.2 7.3 7.3 7.3 7.1 7.0 7.0 7.0 7.0 7.0 7.1 7.1 6.9 6.8 6.8 6.7 6.7 6.7 6.7 6.8 6.8 6.8 6.7
7.2 7.3 7.1 7.1 7.0 7.1 7.1 7.1 7.1 7.3 7.6 7.3 6.9 6.8 7.0 7.0 7.1 7.2 7.3 7.3 7.5 7.5 7.5 7.5 7.4 7.3 7.3 7.4 7.4 7.4 7.4 7.3 7.2 7.0 7.0 7.0 7.0 6.9 6.8 6.8 6.9 6.7 6.7 6.6 6.6 6.5 6.5 6.6 6.5
7.0 7.3 7.0 7.0 7.0 7.1 7.0 7.1 7.2 7.3 7.4 7.3 7.1 6.9 7.0 7.1 7.3 7.2 7.3 7.3 7.4 7.4 7.6 7.8 7.9 7.7 7.6 7.6 7.6 7.5 7.5 7.4 7.4 7.3 7.1 7.0 6.9 6.9 6.7 6.6 6.7 6.7 6.6 6.6 6.5 6.5 6.4 6.3 6.3
7.0 7.1 7.1 7.0 7.0 7.1 7.2 7.2 7.3 7.3 7.5 7.4 7.3 7.2 7.1 7.1 7.1 7.3 7.3 7.4 7.3 7.2 7.3 7.5 7.5 7.6 7.8 7.9 7.6 7.6 7.6 7.6 7.5 7.3 7.1 7.0 7.1 7.0 6.9 6.7 6.6 6.5 6.4 6.3 6.4 6.4 6.5 6.4 6.3
7.0 6.9 6.9 7.0 6.9 7.0 7.0 7.2 7.1 7.0 6.8 6.9 7.3 7.3 7.1 7.1 7.1 7.2 7.3 7.2 7.2 7.2 7.2 7.2 7.3 7.2 7.3 7.4 7.6 7.6 7.5 7.4 7.4 7.3 7.1 7.0 6.9 7.0 6.9 6.8 6.7 6.6 6.5 6.3 6.2 6.2 6.2 6.2 6.1
6.8 7.0 6.9 7.0 7.1 7.0 7.1 7.3 7.3 7.0 6.7 6.7 6.8 7.1 7.3 7.2 7.1 7.1 7.2 7.2 7.1 7.0 6.9 6.9 6.9 7.1 7.0 6.9 6.9 6.9 7.1 7.3 7.2 7.1 7.1 7.1 7.1 6.8 6.8 6.8 6.8 6.7 6.6 6.4 6.2 6.1 6.1 6.1 6.0
6.5 6.7 6.7 6.9 6.8 6.9 7.1 7.2 7.2 6.7 6.7 6.6 6.4 6.4 6.8 7.0 7.1 7.2 7.1 7.1 7.0 7.0 6.9 6.9 6.9 6.9 6.9 7.0 6.9 7.0 6.9 6.9 7.1 7.1 7.0 7.0 7.0 6.9 6.9 6.8 6.8 6.7 6.5 6.5 6.4 6.3 6.2 6.1 6.0
6.5 6.5 6.5 6.7 6.8 6.7 6.9 7.1 7.0 6.7 6.7 6.7 6.5 6.5 6.6 6.8 7.1 7.0 6.8 6.6 6.6 6.8 7.1 7.1 6.9 6.8 6.9 6.9 7.0 7.1 7.1 7.1 7.1 7.1 7.0 6.9 7.0 6.9 6.8 6.8 6.8 6.8 6.5 6.4 6.5 6.5 6.3 6.2 6.1
6.1 6.2 6.4 6.5 6.6 6.6 6.4 7.1 6.8 6.6 6.8 6.7 7.0 7.0 6.9 7.0 6.9 6.9 6.6 6.5 6.5 6.4 6.7 6.9 7.0 6.9 6.8 6.7 6.9 7.1 7.2 7.2 7.1 7.1 7.1 7.1 6.9 6.8 6.8 6.7 6.6 6.6 6.6 6.5 6.5 6.5 6.5 6.3 6.2
6.0 5.9 6.3 6.4 6.4 6.1 5.8 6.1 7.0 6.4 6.4 6.2 6.5 6.8 7.1 7.0 7.0 6.7 6.5 6.4 6.4 6.5 6.3 6.5 6.6 6.7 6.7 6.8 6.9 6.8 6.9 6.9 6.9 7.0 7.1 7.2 7.1 7.0 6.8 6.7 6.6 6.6 6.5 6.5 6.4 6.3 6.4 6.4 6.3
6.0 5.8 5.7 6.1 6.4 6.0 5.9 5.9 6.2 6.8 6.6 6.5 6.5 6.8 6.8 6.8 6.7 6.5 6.4 6.3 6.3 6.4 6.3 6.4 6.7 6.7 6.7 6.9 6.8 6.9 6.9 6.7 6.8 6.9 6.8 6.9 7.0 7.1 7.1 6.9 6.7 6.8 6.7 6.1 6.1 5.9 6.1 6.2 6.2
5.8 5.7 5.7 6.4 6.4 5.6 5.8 5.6 6.2 6.4 6.3 6.5 6.7 7.0 7.2 7.0 6.6 6.6 6.6 6.4 6.2 6.1 6.4 6.7 6.7 6.8 6.8 6.8 6.6 6.5 6.4 6.7 6.6 6.4 6.5 6.7 6.7 6.6 6.7 6.9 6.9 6.7 6.5 6.4 6.5 6.5 6.4 6.3 6.1
5.8 5.7 6.1 6.2 6.5 5.4 5.4 5.4 5.9 6.2 6.3 6.5 6.7 7.1 7.1 7.0 6.7 6.4 6.3 6.3 6.4 6.2 6.3 6.3 6.5 6.6 6.6 6.5 6.5 6.5 6.4 6.2 6.3 6.2 6.1 6.0 6.1 6.1 6.2 6.2 6.3 6.4 6.4 6.4 6.3 6.3 6.3 6.2 6.2
5.7 5.8 5.8 5.7 5.8 5.6 5.3 5.1 6.1 6.3 6.5 6.8 7.1 7.1 7.1 6.8 6.8 6.6 6.4 6.4 6.4 6.3 6.4 6.3 6.2 6.0 6.1 6.1 6.1 6.1 6.0 6.0 5.9 5.7 5.8 5.8 5.8 5.8 5.8 6.0 6.2 6.2 6.2 6.3 6.3 6.2 6.2 6.3 6.3
5.6 5.9 5.6 5.5 5.2 5.1 5.2 4.7 5.4 6.5 6.9 7.2 7.4 7.3 7.2 6.9 6.9 6.8 6.7 6.4 6.4 6.3 6.3 6.1 6.0 5.9 5.7 5.7 5.6 5.7 5.8 5.6 5.7 5.6 5.6 5.6 5.5 5.5 5.7 5.8 5.9 5.9 6.0 5.9 6.0 6.0 6.0 6.1 6.2
5.4 5.5 5.7 5.5 5.3 4.8 5.3 5.0 4.9 6.0 6.6 7.0 7.0 6.9 7.1 7.0 6.8 6.7 6.2 6.0 6.2 6.2 6.1 6.0 5.7 5.6 5.7 5.6 5.5 5.4 5.4 5.4 5.6 5.5 5.6 5.5 5.5 5.4 5.4 5.6 5.8 6.0 6.0 5.9 5.8 5.8 5.8 5.9 5.9
5.8 5.9 5.8 5.6 5.5 3.9 5.7 5.8 4.7 6.1 6.3 6.5 6.9 7.4 7.3 7.2 6.9 6.5 5.8 5.7 5.8 5.8 5.8 5.7 5.7 5.7 5.5 5.4 5.4 5.6 5.4 5.6 5.7 5.6 5.6 5.6 5.7 5.6 5.5 5.4 5.3 5.5 5.9 5.9 5.9 5.8 5.8 5.9 5.9
5.8 5.8 5.6 4.7 4.0 4.1 5.8 5.3 5.8 6.2 6.5 6.8 6.9 7.2 7.1 6.8 6.7 6.4 6.0 5.9 5.9 5.7 5.7 5.8 5.8 5.8 5.9 6.1 5.8 5.4 5.4 5.4 5.4 5.4 5.2 5.3 5.5 5.5 5.4 5.2 5.2 5.3 5.4 5.5 5.7 5.9 5.9 5.9 5.9
6.1 6.1 6.0 4.5 4.0 4.5 5.6 5.1 6.2 6.2 6.4 6.4 6.7 6.7 6.6 6.7 6.5 6.2 6.1 5.9 6.0 6.0 6.0 6.0 6.1 5.8 5.9 5.8 5.8 5.9 5.8 5.8 5.6 5.5 5.3 5.0 5.4 5.0 5.1 5.2 5.3 5.2 5.2 5.2 5.4 5.6 5.7 5.8 5.9
6.1 6.1 6.5 6.4 5.9 4.8 5.9 5.7 6.0 6.2 6.4 6.5 6.5 6.5 6.4 6.3 5.9 5.8 5.8 5.7 5.8 6.0 6.2 6.5 6.5 6.6 6.5 6.7 6.5 6.4 6.2 5.9 5.9 5.9 5.9 6.0 6.1 5.7 5.5 5.1 5.0 5.1 5.4 5.3 5.4 5.4 5.4 5.3 5.4
6.4 6.6 6.4 6.0 4.6 3.7 5.2 5.4 6.1 6.2 6.5 6.6 6.4 6.2 6.1 5.8 5.7 5.8 6.1 6.2 6.1 6.1 6.1 6.2 6.3 6.4 6.5 6.5 6.5 6.4 6.5 6.4 6.3 6.1 6.0 5.9 5.6 5.6 5.6 5.6 5.3 5.2 5.0 4.9 5.0 5.2 5.0 4.9 5.0
6.6 6.3 6.2 6.6 6.5 4.6 3.9 5.9 6.2 6.3 6.5 6.3 6.3 6.2 6.0 6.1 6.2 6.4 6.4 6.4 6.6 6.7 6.7 6.5 6.4 6.5 6.6 6.6 6.5 6.1 5.9 5.8 5.7 5.8 5.9 5.7 5.6 5.4 5.3 5.2 5.2 5.1 5.2 4.8 4.7 4.7 4.8 5.0 5.2
6.5 6.7 6.7 6.4 6.0 6.2 6.4 5.9 6.1 6.1 6.4 6.6 6.3 6.4 6.3 6.3 6.3 6.3 6.3 6.6 6.7 6.7 6.5 6.5 6.4 6.1 5.9 5.7 5.6 5.6 5.6 5.6 5.5 5.4 5.3 5.2 5.2 5.1 5.0 5.0 5.0 5.0 4.9 4.8 4.9 5.2 5.1 4.7 4.9
Wind_Speed
7 8 2 4 4 5 2 0 1 2 2 1 1 2 2 3 3 3 3 8 3 8 19 19 18 17 16 16 15 14 14 12 11 9 8 7 6 6 6 4 8 11 9 7 6 6 6 7 7
5 1 4 2 5 4 4 4 1 1 2 2 2 2 2 2 2 2 1 7 7 11 17 18 21 18 16 16 16 14 13 11 10 10 9 8 6 6 6 5 7 9 9 11 6 5 6 6 7
0 4 4 4 4 3 4 3 2 4 3 2 2 1 1 2 2 2 4 6 7 8 16 18 22 19 18 18 17 14 13 12 11 10 9 8 8 7 6 5 6 8 7 9 4 5 5 6 6
3 5 4 5 2 2 2 2 3 2 3 4 2 2 3 2 2 3 3 6 6 6 12 16 21 19 18 17 16 16 16 14 12 10 10 10 10 9 8 8 8 6 9 6 3 3 4 5 5
4 3 4 3 2 3 2 2 3 3 1 2 2 4 5 4 1 0 4 5 7 6 11 14 20 19 19 18 18 17 16 16 14 14 12 12 11 9 8 5 4 5 5 3 1 2 3 4 4
4 3 5 1 3 4 3 1 1 2 1 3 2 4 4 4 3 2 1 4 4 6 9 12 20 21 20 19 18 17 16 15 14 13 13 13 14 14 10 6 5 1 1 2 3 1 2 3 4
5 4 3 1 3 4 3 4 2 2 1 2 1 3 4 5 6 4 3 1 3 6 8 10 15 19 20 19 19 18 17 16 14 13 15 14 14 14 11 9 8 8 6 4 5 2 0 1 3
4 4 2 1 1 1 4 5 1 1 2 5 2 2 4 3 3 2 1 4 4 5 7 9 13 14 15 15 20 19 18 18 17 15 13 13 14 16 14 11 9 8 6 5 7 3 2 1 1
3 4 1 2 2 2 4 5 2 3 1 4 3 1 4 5 3 1 4 5 5 4 5 5 7 11 15 16 17 21 20 19 18 18 15 13 10 16 16 14 11 8 6 6 6 4 4 1 0
4 3 6 3 3 2 3 1 3 5 7 2 3 7 7 6 6 6 6 8 6 6 5 5 6 6 9 10 11 13 14 14 15 15 16 16 14 15 17 15 12 9 8 7 6 4 3 1 2
2 4 5 3 4 2 2 2 3 1 6 4 4 9 8 8 10 9 7 5 5 6 6 8 6 7 6 9 10 10 9 10 8 9 12 12 11 12 11 8 8 6 7 6 6 4 2 3 3
0 4 3 2 3 2 3 2 5 5 8 6 4 3 5 9 8 7 7 7 8 7 7 8 8 6 9 9 8 9 9 9 6 5 7 8 7 8 8 8 7 7 5 5 5 5 3 3 5
2 3 3 6 7 5 2 6 5 9 7 5 8 9 9 8 8 6 7 6 7 8 8 8 8 6 6 6 6 7 8 9 7 7 10 10 6 6 9 8 10 10 8 9 6 5 3 3 5
2 3 6 7 7 4 4 2 2 3 8 8 9 9 8 9 9 8 11 10 10 9 10 9 8 6 6 5 5 4 8 8 9 10 13 14 12 10 9 7 7 8 13 13 12 8 5 3 3
1 5 7 7 2 5 6 0 7 5 8 7 8 7 8 8 8 8 7 7 9 10 10 11 10 10 0 5 5 6 4 5 6 8 10 14 12 9 8 7 6 9 11 10 10 6 5 3 3
3 3 4 3 3 1 4 8 6 2 8 7 6 6 7 9 7 8 9 9 10 10 12 12 11 11 8 5 5 6 6 3 4 5 2 5 4 3 5 4 4 11 12 10 5 3 2 3 3
4 3 4 8 3 2 3 6 7 6 7 6 6 6 6 7 9 9 11 9 10 9 11 12 12 12 10 9 11 12 13 11 11 13 11 10 6 3 1 2 1 4 5 5 3 1 2 2 2
5 4 4 6 2 2 3 8 8 6 3 7 7 6 6 7 9 10 12 12 10 10 11 12 11 14 9 6 8 9 10 13 16 15 15 16 13 11 7 5 3 3 2 2 1 1 1 1 2
4 4 5 4 4 1 7 6 12 4 4 7 7 7 7 7 5 8 9 10 11 14 14 14 15 14 10 5 4 5 4 6 10 18 22 21 19 16 12 8 7 6 3 2 3 2 1 1 1
2 1 7 5 4 6 7 8 10 4 2 3 9 6 7 6 7 9 9 10 11 10 11 14 14 14 11 7 3 4 4 6 6 15 21 24 23 22 17 13 7 7 3 4 2 1 1 1 2
4 7 3 6 4 3 4 6 7 3 5 9 7 7 6 7 6 6 8 8 7 11 10 12 13 14 12 12 6 4 5 5 7 9 9 19 22 22 19 18 14 11 7 4 3 2 1 2 0
5 8 8 7 3 5 3 5 5 5 4 4 6 6 6 6 6 5 6 7 7 7 7 10 12 12 12 12 11 15 9 8 4 5 7 14 22 22 21 19 17 14 11 8 5 4 1 1 4
6 2 5 2 2 2 3 2 6 5 3 5 5 6 6 5 6 6 6 6 5 6 6 6 11 13 12 12 11 9 11 6 5 5 9 9 15 21 22 21 19 16 12 10 8 7 6 2 2
4 4 6 4 2 1 9 8 3 4 2 5 5 6 7 7 7 6 5 5 5 5 6 7 10 10 9 10 11 11 11 9 8 9 7 6 6 12 18 18 17 17 16 12 10 9 7 5 4
4 6 2 3 2 6 1 2 7 1 2 6 14 10 7 5 5 6 6 5 5 5 6 6 7 8 6 9 10 9 10 9 9 6 5 6 5 4 8 13 12 11 13 14 14 9 7 6 5
7 8 6 7 3 4 1 6 5 1 2 6 13 11 7 7 7 6 6 6 5 5 6 6 6 7 7 7 7 7 8 6 5 6 4 3 4 4 11 13 13 14 14 13 13 6 4 5 5
5 4 4 5 3 2 4 4 0 2 5 6 7 7 9 8 7 7 7 6 6 6 6 6 6 6 7 7 6 7 7 7 6 6 5 3 7 7 11 13 12 14 14 14 12 4 5 5 5
3 5 3 2 2 4 4 6 5 7 7 7 8 10 7 7 9 8 7 6 5 5 5 6 6 7 5 6 5 5 6 5 4 4 4 5 5 7 8 8 9 9 9 11 10 7 7 6 5
2 2 3 3 4 5 2 7 4 7 9 13 12 9 9 10 10 7 6 6 6 6 5 5 6 6 5 5 4 5 4 4 4 4 4 4 6 8 7 8 7 6 5 7 5 5 6 8 9
2 6 7 6 7 3 2 12 3 3 8 9 9 9 8 8 8 7 7 8 7 7 6 6 6 6 6 5 5 5 4 4 5 5 5 9 5 10 10 9 7 6 6 8 6 8 8 8 10
Wind_Direction
330 338 77 41 54 64 330 36 274 339 336 228 104 112 176 190 157 206 297 194 169 154 170 180 182 182 179 175 171 165 161 160 156 148 138 131 124 121 117 111 126 112 107 95 87 78 70 63 52
329 35 44 77 82 65 283 265 237 261 317 26 68 73 43 268 281 291 357 191 174 157 170 178 182 182 183 176 169 169 168 168 167 162 156 153 149 147 148 135 135 136 129 103 88 83 70 52 41
325 42 76 86 102 155 190 236 268 322 352 2 11 83 166 296 306 243 270 156 145 158 169 180 182 182 182 177 173 174 176 175 175 176 173 170 158 138 141 152 142 123 107 74 81 78 66 46 30
43 12 39 80 123 244 228 220 226 336 348 37 11 12 318 335 312 270 95 130 148 168 175 183 184 184 184 181 181 179 180 182 182 184 188 180 151 133 126 132 130 122 107 107 98 81 57 48 35
34 56 55 83 284 271 254 237 182 88 57 324 13 320 297 336 301 33 129 149 171 177 180 184 187 189 188 187 187 188 189 190 190 192 187 168 164 154 143 142 160 194 113 92 89 97 80 61 49
39 85 57 129 279 282 286 272 108 60 331 320 25 348 272 335 341 312 231 185 193 175 186 191 197 195 193 192 192 194 194 195 198 202 190 187 182 174 165 184 205 226 174 242 270 33 50 52 52
103 78 167 177 300 329 327 348 46 118 333 262 202 333 285 306 231 216 221 243 177 197 185 195 197 203 202 200 198 198 196 197 205 209 202 204 196 183 165 168 188 217 222 233 239 207 123 79 71
101 87 101 246 268 307 333 349 15 83 288 329 163 260 281 279 312 131 194 254 229 212 206 197 195 196 201 206 208 207 205 204 207 214 211 217 218 182 175 177 188 209 216 221 227 209 217 179 63
117 61 180 220 138 286 342 16 301 275 269 341 299 245 274 336 33 10 352 351 340 325 285 243 208 202 196 199 207 210 214 212 215 220 220 223 218 188 184 185 192 204 207 208 204 213 220 171 324
83 109 213 217 188 234 298 255 328 356 335 317 319 314 345 342 21 9 349 322 320 308 299 272 285 248 208 205 201 204 211 214 212 220 219 212 207 192 186 192 195 195 194 196 206 226 188 228 276
158 187 194 238 202 200 230 266 196 244 315 225 308 292 346 28 38 46 32 13 331 323 357 337 276 231 230 223 213 206 207 224 218 217 218 221 195 175 181 186 193 193 187 189 180 180 176 297 309
1 243 232 250 169 313 285 338 296 199 238 62 360 353 55 46 36 23 15 0 347 344 333 331 331 252 208 201 203 213 217 215 202 206 223 183 148 157 165 182 187 184 194 196 184 176 203 266 306
199 293 279 274 279 244 320 262 240 264 266 96 73 52 47 37 26 16 3 354 338 343 331 330 326 316 227 191 180 177 209 215 215 218 223 201 167 160 170 189 184 193 188 197 196 195 208 251 296
200 277 285 285 272 259 216 254 134 316 98 77 65 53 45 37 14 5 8 355 351 336 335 326 326 313 255 191 161 168 194 205 211 219 220 202 191 177 176 174 192 201 194 199 195 192 200 246 301
340 333 327 259 275 223 153 275 230 210 86 76 68 56 43 32 28 19 353 351 347 337 328 345 341 336 209 166 149 147 157 171 182 208 216 210 198 193 182 182 171 203 207 191 182 171 181 190 219
12 46 349 285 163 237 146 262 257 354 117 105 95 67 55 33 15 7 1 360 355 352 354 343 354 0 17 71 105 113 113 89 359 1 308 246 222 192 168 174 199 199 187 180 174 150 200 231 222
4 240 220 314 208 129 156 258 274 93 105 127 120 86 64 37 21 8 360 356 358 356 359 1 2 11 18 42 60 64 64 63 49 45 36 23 4 341 234 226 269 176 162 163 151 146 184 214 241
205 212 237 244 269 155 202 258 285 293 138 152 126 103 70 47 23 10 8 1 1 9 17 13 14 12 1 47 58 54 54 55 51 42 39 37 39 40 41 28 49 105 93 70 73 88 66 10 242
161 187 213 250 257 234 244 245 268 253 100 144 145 111 84 61 18 28 21 16 18 17 24 25 23 12 18 5 20 38 44 40 39 33 27 29 30 32 42 40 36 30 30 31 132 96 241 311 69
216 279 261 287 273 175 271 269 266 4 63 212 136 122 111 95 48 29 23 22 24 29 28 30 31 23 25 32 6 42 59 50 46 37 36 31 30 26 34 33 32 36 30 20 40 77 58 269 188
206 212 224 226 323 291 331 289 249 75 78 83 91 114 105 108 91 51 35 24 18 29 26 39 39 40 31 30 37 28 38 45 33 27 30 27 29 27 29 36 39 32 24 21 6 341 258 307 268
215 202 213 227 141 231 141 276 289 170 115 90 117 122 128 118 95 78 59 48 35 25 29 42 51 53 48 39 57 65 64 59 22 28 34 34 31 29 28 28 31 36 32 26 6 3 345 352 290
235 128 175 204 178 65 286 320 256 116 211 173 164 148 139 132 118 101 89 76 51 37 36 47 58 54 51 53 57 72 71 62 50 38 42 39 34 33 26 27 27 28 27 20 17 10 360 343 298
132 87 46 52 62 291 221 191 256 186 168 139 163 161 163 160 139 116 103 91 82 59 55 56 72 62 59 68 67 71 77 70 61 43 37 24 23 31 28 26 25 28 26 19 7 3 14 7 344
115 97 328 333 344 236 15 140 247 16 24 189 174 169 177 166 144 143 137 124 103 95 88 77 75 76 70 76 76 75 73 72 67 57 38 28 26 14 15 19 21 22 22 18 14 14 8 4 357
181 161 163 217 211 256 269 241 256 306 333 131 152 156 156 175 179 169 164 156 144 122 107 106 100 94 83 80 78 81 78 75 67 57 48 9 40 15 9 12 12 11 16 17 11 3 360 355 349
199 187 171 107 61 22 233 295 291 44 60 97 123 146 182 188 176 182 190 174 162 153 137 127 115 94 79 79 76 64 66 66 62 48 42 16 22 10 4 10 6 3 6 3 0 351 344 348 334
180 162 73 8 239 245 262 274 232 220 197 166 173 200 192 186 195 199 189 184 172 150 144 122 106 106 109 99 89 83 81 80 78 67 41 28 2 2 0 358 355 348 352 349 348 340 333 330 323
129 212 101 156 162 197 240 261 230 211 172 186 201 201 198 201 206 199 186 182 175 166 155 135 127 129 128 121 117 114 96 80 77 59 31 13 358 2 359 345 341 335 338 336 328 319 309 316 311
274 208 169 208 238 250 153 258 15 80 177 180 199 204 210 214 212 197 183 178 176 173 171 172 169 165 170 160 141 131 107 64 46 29 10 3 354 350 343 339 336 332 329 327 320 318 314 304 306